• In Belarus
  • List of Countries
  • For 7 days
  • Water Temperature
  • Satellite Maps
  • Weather Map
  • Weather Widgets
  • user-avatar
    Login

    Hourly Weather Astrahan'

    Today, 23 June, Saturday

    Time Temperature Precipitation Wind Pressure Humidity
    00:00 +26°C° 0 mm 2 mps 756 mmHg 38%
    01:00 +25°C° 0 mm 2 mps 756 mmHg 38%
    02:00 +25°C° 0 mm 1 mps 756 mmHg 38%
    03:00 +25°C° 0 mm 2 mps 756 mmHg 39%
    04:00 +26°C° 0 mm 3 mps 756 mmHg 37%
    05:00 +27°C° 0 mm 3 mps 756 mmHg 35%
    06:00 +27°C° 0 mm 4 mps 756 mmHg 33%
    07:00 +29°C° 0 mm 4 mps 756 mmHg 30%
    08:00 +32°C° 0 mm 4 mps 756 mmHg 27%
    09:00 +33°C° 0 mm 4 mps 756 mmHg 24%
    10:00 +34°C° 0 mm 4 mps 756 mmHg 23%
    11:00 +35°C° 0 mm 4 mps 756 mmHg 22%
    12:00 +35°C° 0 mm 4 mps 756 mmHg 21%
    13:00 +35°C° 0 mm 5 mps 756 mmHg 21%
    14:00 +35°C° 0 mm 5 mps 756 mmHg 22%
    15:00 +35°C° 0 mm 5 mps 755 mmHg 22%
    16:00 +34°C° 0 mm 5 mps 755 mmHg 24%
    17:00 +33°C° 0 mm 5 mps 755 mmHg 25%
    18:00 +32°C° 0 mm 5 mps 755 mmHg 27%
    19:00 +29°C° 0 mm 4 mps 755 mmHg 31%
    20:00 +28°C° 0 mm 4 mps 756 mmHg 35%
    21:00 +26°C° 0 mm 3 mps 756 mmHg 39%
    22:00 +25°C° 0 mm 2 mps 756 mmHg 39%
    23:00 +25°C° 0 mm 1 mps 756 mmHg 39%

    Tomorrow, 24 June, Sunday

    Time Temperature Precipitation Wind Pressure Humidity
    00:00 +24°C° 0 mm 1 mps 756 mmHg 39%
    01:00 +24°C° 0 mm 1 mps 756 mmHg 38%
    02:00 +24°C° 0 mm 2 mps 756 mmHg 37%
    03:00 +24°C° 0 mm 2 mps 756 mmHg 36%
    04:00 +25°C° 0 mm 2 mps 756 mmHg 35%
    05:00 +26°C° 0 mm 2 mps 756 mmHg 33%
    06:00 +27°C° 0 mm 3 mps 757 mmHg 32%
    07:00 +29°C° 0 mm 3 mps 757 mmHg 29%
    08:00 +30°C° 0 mm 3 mps 757 mmHg 26%
    09:00 +33°C° 0 mm 3 mps 757 mmHg 23%
    10:00 +34°C° 0 mm 3 mps 757 mmHg 22%
    11:00 +35°C° 0 mm 3 mps 757 mmHg 20%
    12:00 +36°C° 0 mm 4 mps 757 mmHg 19%
    13:00 +36°C° 0 mm 4 mps 757 mmHg 19%
    14:00 +36°C° 0 mm 4 mps 757 mmHg 19%
    15:00 +36°C° 0 mm 4 mps 756 mmHg 19%
    16:00 +35°C° 0 mm 4 mps 756 mmHg 21%
    17:00 +34°C° 0 mm 4 mps 756 mmHg 23%
    18:00 +33°C° 0 mm 4 mps 756 mmHg 24%
    19:00 +31°C° 0 mm 3 mps 757 mmHg 28%
    20:00 +30°C° 0 mm 2 mps 757 mmHg 31%
    21:00 +28°C° 0 mm 2 mps 757 mmHg 34%
    22:00 +28°C° 0 mm 1 mps 757 mmHg 35%
    23:00 +27°C° 0 mm 1 mps 757 mmHg 36%

    Day after tomorrow, 25 June, Monday

    Time Temperature Precipitation Wind Pressure Humidity
    00:00 +26°C° 0 mm 1 mps 757 mmHg 38%
    01:00 +26°C° 0 mm 1 mps 757 mmHg 37%
    02:00 +26°C° 0 mm 1 mps 757 mmHg 37%
    03:00 +25°C° 0 mm 1 mps 757 mmHg 37%
    04:00 +26°C° 0 mm 1 mps 757 mmHg 35%
    05:00 +27°C° 0 mm 1 mps 758 mmHg 33%
    06:00 +28°C° 0 mm 1 mps 758 mmHg 31%
    07:00 +30°C° 0 mm 1 mps 758 mmHg 28%
    08:00 +32°C° 0 mm 2 mps 758 mmHg 25%
    09:00 +35°C° 0 mm 2 mps 758 mmHg 22%
    10:00 +36°C° 0 mm 3 mps 758 mmHg 21%
    11:00 +37°C° 0 mm 3 mps 758 mmHg 19%
    12:00 +37°C° 0 mm 3 mps 758 mmHg 18%
    13:00 +38°C° 0 mm 3 mps 758 mmHg 18%
    14:00 +38°C° 0 mm 4 mps 757 mmHg 18%
    15:00 +38°C° 0 mm 4 mps 757 mmHg 18%
    16:00 +37°C° 0 mm 4 mps 757 mmHg 20%
    17:00 +36°C° 0 mm 5 mps 757 mmHg 22%
    18:00 +35°C° 0 mm 5 mps 757 mmHg 23%
    19:00 +33°C° 0 mm 4 mps 757 mmHg 26%
    20:00 +31°C° 0 mm 3 mps 757 mmHg 30%
    21:00 +29°C° 0 mm 2 mps 758 mmHg 33%
    22:00 +29°C° 0 mm 2 mps 757 mmHg 34%
    23:00 +28°C° 0 mm 1 mps 757 mmHg 35%

    26 June, Tuesday

    Time Temperature Precipitation Wind Pressure Humidity
    00:00 +27°C° 0 mm 1 mps 757 mmHg 37%
    01:00 +27°C° 0 mm 1 mps 757 mmHg 36%
    02:00 +27°C° 0 mm 1 mps 757 mmHg 36%
    03:00 +26°C° 0 mm 2 mps 757 mmHg 36%
    04:00 +28°C° 0 mm 2 mps 757 mmHg 34%
    05:00 +29°C° 0 mm 3 mps 757 mmHg 31%
    06:00 +30°C° 0 mm 3 mps 757 mmHg 29%
    07:00 +33°C° 0 mm 4 mps 757 mmHg 26%
    08:00 +35°C° 0 mm 4 mps 757 mmHg 22%
    09:00 +39°C° 0 mm 5 mps 757 mmHg 19%
    10:00 +39°C° 0 mm 5 mps 757 mmHg 18%
    11:00 +40°C° 0 mm 5 mps 757 mmHg 17%
    12:00 +41°C° 0 mm 5 mps 756 mmHg 16%
    13:00 +41°C° 0 mm 5 mps 756 mmHg 16%
    14:00 +41°C° 0 mm 5 mps 756 mmHg 16%
    15:00 +41°C° 0 mm 6 mps 756 mmHg 16%
    16:00 +40°C° 0 mm 6 mps 756 mmHg 16%
    17:00 +40°C° 0 mm 6 mps 756 mmHg 17%
    18:00 +39°C° 0 mm 6 mps 756 mmHg 18%
    19:00 +36°C° 0 mm 5 mps 756 mmHg 21%
    20:00 +34°C° 0 mm 4 mps 756 mmHg 24%
    21:00 +31°C° 0 mm 3 mps 756 mmHg 27%
    22:00 +30°C° 0 mm 3 mps 756 mmHg 28%
    23:00 +30°C° 0 mm 3 mps 756 mmHg 29%

    27 June, Wednesday

    Time Temperature Precipitation Wind Pressure Humidity
    00:00 +29°C° 0 mm 2 mps 756 mmHg 30%
    01:00 +29°C° 0 mm 2 mps 756 mmHg 30%
    02:00 +28°C° 0 mm 2 mps 756 mmHg 30%
    03:00 +28°C° 0 mm 3 mps 756 mmHg 30%
    04:00 +29°C° 0 mm 3 mps 756 mmHg 30%
    05:00 +30°C° 0 mm 4 mps 756 mmHg 29%
    06:00 +32°C° 0 mm 4 mps 756 mmHg 29%
    07:00 +34°C° 0 mm 5 mps 756 mmHg 27%
    08:00 +36°C° 0 mm 6 mps 756 mmHg 25%
    09:00 +39°C° 0 mm 6 mps 756 mmHg 23%
    10:00 +40°C° 0 mm 6 mps 756 mmHg 22%
    11:00 +40°C° 0 mm 7 mps 756 mmHg 21%
    12:00 +41°C° 0 mm 7 mps 755 mmHg 20%
    13:00 +41°C° 0 mm 7 mps 755 mmHg 20%
    14:00 +41°C° 0 mm 7 mps 755 mmHg 20%
    15:00 +41°C° 0 mm 7 mps 755 mmHg 20%
    16:00 +40°C° 0 mm 6 mps 755 mmHg 22%
    17:00 +39°C° 0 mm 6 mps 755 mmHg 25%
    18:00 +38°C° 0 mm 6 mps 755 mmHg 27%
    19:00 +36°C° 0 mm 5 mps 755 mmHg 31%
    20:00 +34°C° 0 mm 4 mps 755 mmHg 35%
    21:00 +33°C° 0 mm 3 mps 756 mmHg 39%
    22:00 +31°C° 0 mm 2 mps 756 mmHg 39%
    23:00 +31°C° 0 mm 2 mps 756 mmHg 40%

    28 June, Thursday

    Time Temperature Precipitation Wind Pressure Humidity
    00:00 +30°C° 0 mm 2 mps 756 mmHg 40%
    01:00 +30°C° 0 mm 2 mps 756 mmHg 40%
    02:00 +30°C° 0 mm 2 mps 756 mmHg 40%
    03:00 +30°C° 0 mm 2 mps 756 mmHg 40%
    04:00 +31°C° 0 mm 3 mps 756 mmHg 39%
    05:00 +31°C° 0 mm 3 mps 756 mmHg 38%
    06:00 +33°C° 0 mm 4 mps 756 mmHg 36%
    07:00 +35°C° 0 mm 4 mps 756 mmHg 33%
    08:00 +37°C° 0 mm 4 mps 757 mmHg 30%
    09:00 +39°C° 0 mm 5 mps 757 mmHg 26%
    10:00 +40°C° 0 mm 4 mps 757 mmHg 25%
    11:00 +41°C° 0 mm 4 mps 757 mmHg 24%
    12:00 +42°C° 0 mm 4 mps 756 mmHg 22%
    13:00 +42°C° 0 mm 4 mps 756 mmHg 22%
    14:00 +42°C° 0 mm 4 mps 756 mmHg 22%
    15:00 +42°C° 0 mm 4 mps 756 mmHg 21%
    16:00 +41°C° 0 mm 4 mps 756 mmHg 22%
    17:00 +40°C° 0 mm 4 mps 756 mmHg 24%
    18:00 +40°C° 0 mm 4 mps 756 mmHg 25%
    19:00 +37°C° 0 mm 3 mps 756 mmHg 28%
    20:00 +35°C° 0 mm 2 mps 756 mmHg 32%
    21:00 +32°C° 0 mm 1 mps 756 mmHg 36%
    22:00 +31°C° 0 mm 1 mps 756 mmHg 37%
    23:00 +31°C° 0 mm 1 mps 756 mmHg 38%
    Show more